TimeEST,TemperatureF,Dew PointF,Humidity,Sea Level PressureIn,VisibilityMPH,Wind Direction,Wind SpeedMPH,Gust SpeedMPH,PrecipitationIn,Events,Conditions,WindDirDegrees,DateUTC
12:12 AM,50.0,48.2,94,29.85,2.5,SSE,3.5,-,0.04,Rain,Light Rain,150,2012-12-08 05:12:00
12:19 AM,50.0,48.2,94,29.85,5.0,SSE,3.5,-,0.04,Rain,Light Rain,160,2012-12-08 05:19:00
12:53 AM,50.0,50.0,100,29.85,10.0,South,4.6,-,0.04,,Overcast,190,2012-12-08 05:53:00
1:53 AM,51.1,50.0,96,29.83,10.0,SSW,4.6,-,N/A,,Overcast,200,2012-12-08 06:53:00
2:20 AM,51.8,50.0,94,29.84,9.0,SSW,4.6,-,N/A,,Overcast,210,2012-12-08 07:20:00
2:42 AM,51.8,51.8,100,29.83,9.0,SSW,4.6,-,N/A,,Overcast,210,2012-12-08 07:42:00
2:53 AM,52.0,51.1,97,29.84,9.0,SW,6.9,-,N/A,,Overcast,220,2012-12-08 07:53:00
3:08 AM,53.6,51.8,94,29.84,10.0,SSW,6.9,-,N/A,,Overcast,210,2012-12-08 08:08:00
3:53 AM,53.1,51.1,93,29.84,10.0,SW,5.8,-,N/A,,Overcast,220,2012-12-08 08:53:00
4:53 AM,53.1,50.0,89,29.85,10.0,SW,5.8,-,N/A,,Mostly Cloudy,230,2012-12-08 09:53:00
5:53 AM,52.0,48.9,89,29.85,10.0,SW,6.9,-,N/A,,Mostly Cloudy,230,2012-12-08 10:53:00
6:27 AM,51.8,48.2,88,29.86,10.0,SW,3.5,-,N/A,,Overcast,220,2012-12-08 11:27:00
6:37 AM,51.8,48.2,88,29.85,7.0,Calm,Calm,-,N/A,,Overcast,0,2012-12-08 11:37:00
6:53 AM,50.0,48.0,93,29.86,7.0,SSW,5.8,-,N/A,,Overcast,200,2012-12-08 11:53:00
7:01 AM,51.8,50.0,94,29.86,7.0,WSW,3.5,-,N/A,,Overcast,240,2012-12-08 12:01:00
7:35 AM,48.2,48.2,100,29.86,7.0,South,5.8,-,N/A,,Scattered Clouds,190,2012-12-08 12:35:00
7:53 AM,51.1,48.9,92,29.87,7.0,SSW,5.8,-,N/A,,Partly Cloudy,210,2012-12-08 12:53:00
8:53 AM,51.1,50.0,96,29.88,4.0,SSW,8.1,-,N/A,,Overcast,200,2012-12-08 13:53:00
9:03 AM,51.8,50.0,94,29.87,4.0,SSW,5.8,-,N/A,,Overcast,210,2012-12-08 14:03:00
9:19 AM,51.8,50.0,94,29.88,3.0,SSW,5.8,-,N/A,,Overcast,210,2012-12-08 14:19:00
9:29 AM,51.8,51.8,100,29.88,3.0,SSW,4.6,-,0.00,Rain,Light Rain,200,2012-12-08 14:29:00
9:36 AM,51.8,51.8,100,29.88,2.5,South,4.6,-,0.01,Rain,Light Rain,190,2012-12-08 14:36:00
9:45 AM,51.8,51.8,100,29.88,3.0,SSW,5.8,-,0.01,Rain,Light Rain,200,2012-12-08 14:45:00
9:53 AM,52.0,51.1,97,29.89,3.0,SSW,5.8,-,0.01,Rain,Light Rain,210,2012-12-08 14:53:00
9:59 AM,51.8,51.8,100,29.89,2.5,SSW,5.8,-,0.01,Rain,Light Rain,210,2012-12-08 14:59:00
10:04 AM,51.8,51.8,100,29.89,2.5,SW,3.5,-,0.01,Rain,Light Rain,220,2012-12-08 15:04:00
10:13 AM,51.8,51.8,100,29.89,1.5,SSW,3.5,-,0.03,Rain,Rain,200,2012-12-08 15:13:00
10:23 AM,51.8,51.8,100,29.89,1.5,South,3.5,-,0.05,Rain,Light Rain,190,2012-12-08 15:23:00
10:34 AM,53.6,51.8,94,29.89,2.5,South,3.5,-,0.06,Rain,Light Rain,190,2012-12-08 15:34:00
10:47 AM,53.6,51.8,94,29.89,3.0,South,4.6,-,0.06,,Overcast,180,2012-12-08 15:47:00
10:53 AM,53.1,52.0,96,29.89,3.0,South,4.6,-,0.06,Rain,Light Rain,180,2012-12-08 15:53:00
11:00 AM,53.6,51.8,94,29.89,3.0,South,5.8,-,0.00,,Overcast,190,2012-12-08 16:00:00
11:32 AM,53.6,51.8,94,29.88,2.5,Calm,Calm,-,0.00,,Overcast,0,2012-12-08 16:32:00
11:39 AM,53.6,51.8,94,29.88,3.0,Calm,Calm,-,0.00,Rain,Light Rain,0,2012-12-08 16:39:00
11:48 AM,53.6,51.8,94,29.87,2.5,Calm,Calm,-,0.01,Rain,Light Rain,0,2012-12-08 16:48:00
11:53 AM,54.0,53.1,97,29.87,2.0,Calm,Calm,-,0.01,Rain,Light Rain,0,2012-12-08 16:53:00
11:59 AM,53.6,53.6,100,29.87,3.0,SSW,3.5,-,0.00,Rain,Light Rain,210,2012-12-08 16:59:00
12:09 PM,53.6,53.6,100,29.87,4.0,Calm,Calm,-,0.01,Rain,Light Rain,0,2012-12-08 17:09:00
12:34 PM,53.6,53.6,100,29.85,4.0,SSW,3.5,-,0.02,Rain,Light Rain,210,2012-12-08 17:34:00
12:53 PM,54.0,52.0,93,29.86,7.0,SW,3.5,-,0.02,,Overcast,220,2012-12-08 17:53:00
1:24 PM,53.6,51.8,94,29.85,6.0,SW,5.8,-,0.02,Rain,Light Rain,220,2012-12-08 18:24:00
1:53 PM,54.0,52.0,93,29.86,8.0,SW,5.8,-,0.02,,Overcast,230,2012-12-08 18:53:00
2:02 PM,53.6,51.8,94,29.86,8.0,WSW,4.6,-,N/A,,Overcast,250,2012-12-08 19:02:00
2:12 PM,53.6,51.8,94,29.86,8.0,WSW,8.1,-,N/A,,Overcast,250,2012-12-08 19:12:00
2:28 PM,53.6,51.8,94,29.87,7.0,West,4.6,-,N/A,,Overcast,280,2012-12-08 19:28:00
2:41 PM,53.6,51.8,94,29.87,7.0,WNW,5.8,-,N/A,,Overcast,290,2012-12-08 19:41:00
2:53 PM,54.0,52.0,93,29.88,7.0,WNW,5.8,-,N/A,,Overcast,290,2012-12-08 19:53:00
3:32 PM,53.6,50.0,88,29.90,8.0,WNW,5.8,-,N/A,,Overcast,290,2012-12-08 20:32:00
3:41 PM,53.6,50.0,88,29.90,8.0,West,3.5,-,N/A,,Overcast,280,2012-12-08 20:41:00
3:53 PM,53.1,50.0,89,29.91,7.0,WNW,3.5,-,N/A,,Overcast,290,2012-12-08 20:53:00
4:53 PM,52.0,48.0,86,29.94,8.0,NW,8.1,-,N/A,,Overcast,320,2012-12-08 21:53:00
5:05 PM,51.8,48.2,88,29.94,9.0,NW,8.1,-,N/A,,Overcast,320,2012-12-08 22:05:00
5:53 PM,51.1,46.0,83,29.96,10.0,NNW,8.1,-,N/A,,Overcast,330,2012-12-08 22:53:00
6:07 PM,51.8,46.4,82,29.96,10.0,NNW,3.5,-,N/A,,Overcast,330,2012-12-08 23:07:00
6:53 PM,50.0,46.0,86,29.99,10.0,NNW,4.6,-,N/A,,Overcast,330,2012-12-08 23:53:00
7:53 PM,48.9,45.0,86,30.02,10.0,NNW,8.1,-,N/A,,Overcast,330,2012-12-09 00:53:00
8:12 PM,48.2,44.6,87,30.02,10.0,NNW,6.9,-,N/A,,Overcast,340,2012-12-09 01:12:00
8:53 PM,48.0,44.1,86,30.04,9.0,North,6.9,-,N/A,,Overcast,360,2012-12-09 01:53:00
9:19 PM,46.4,42.8,87,30.05,7.0,North,10.4,19.6,N/A,,Overcast,10,2012-12-09 02:19:00
9:53 PM,45.0,41.0,86,30.06,9.0,NNE,8.1,-,N/A,,Overcast,20,2012-12-09 02:53:00
10:33 PM,44.6,39.2,81,30.06,10.0,NNE,11.5,-,N/A,,Overcast,30,2012-12-09 03:33:00
10:53 PM,44.1,39.9,85,30.07,10.0,NNE,8.1,-,N/A,,Overcast,30,2012-12-09 03:53:00
11:43 PM,44.6,39.2,81,30.07,10.0,NE,4.6,-,N/A,,Overcast,50,2012-12-09 04:43:00
11:53 PM,44.1,39.9,85,30.07,10.0,NE,4.6,-,N/A,,Overcast,50,2012-12-09 04:53:00